Regional Weather Roundup
Issued by NWS

Home | Current Version | Previous Version | Text Only | Print | Product List | Glossary Off
Versions: 1 2 3 4 5 6 7 8 9 10 11 12 13 14 15 16 17 18 19 20 21 22 23 24 25 26 27 28 29 30 31 32 33 34 35 36 37 38 39 40 41 42 43 44 45 46 47 48 49 50

000
ASUS43 KBIS 241431
RWRND
NORTH DAKOTA REGIONAL WEATHER ROUNDUP
NATIONAL WEATHER SERVICE EASTERN NORTH DAKOTA/GRAND FORKS ND
900 AM CDT WED MAY 24 2017

  NOTE: "FAIR" INDICATES FEW OR NO CLOUDS BELOW 12,000 FEET WITH NO
  SIGNIFICANT WEATHER AND/OR OBSTRUCTIONS TO VISIBILITY.

NDZ001>003-009>011-017-241500-
...NORTHWEST NORTH DAKOTA...

CITY           SKY/WX    TMP DP  RH WIND       PRES   REMARKS
WILLISTON      FAIR      58  38  47 SE22G37   29.58F
MINOT          FAIR      60  35  39 SE22G31   29.69F
MINOT AFB      FAIR      59  36  42 S24G31    29.67F
$$

NDZ018>021-031>035-040>046-241500-
...SOUTHWEST NORTH DAKOTA...

CITY           SKY/WX    TMP DP  RH WIND       PRES   REMARKS
BISMARCK       FAIR      51  43  74 SE3       29.76F
DICKINSON      FAIR      53  35  50 S24G31    29.65F
GARRISON         N/A     52  39  61 S16       29.71F
HETTINGER      FAIR      52  37  56 S14       29.71F
$$

NDZ004>008-012>016-024-026-027-054-241500-
...NORTHEAST NORTH DAKOTA...

CITY           SKY/WX    TMP DP  RH WIND       PRES   REMARKS
GRAND FORKS    FAIR      56  47  71 SE5       29.82F
GRAND FORKS AF FAIR      55  44  66 SE6       29.81F
DEVILS LAKE    NOT AVBL
$$

NDZ022-023-025-028>030-036>039-047>053-241500-
...SOUTHEAST NORTH DAKOTA...

CITY           SKY/WX    TMP DP  RH WIND       PRES   REMARKS
JAMESTOWN      FAIR      52  44  74 SE10      29.79F
FARGO          FAIR      54  45  71 VRB3      29.82F
WAHPETON       FAIR      54  45  71 SE7       29.82F
$$




USA.gov is the U.S. government's official web portal to all federal, state and local government web resources and services.